When you browse on this site, cookies collect data to enhance your experience and personalize the content and advertising you see.
Visit our Privacy Policy to learn more. By continuing to use the site, you agree to this use of cookies and data.
  • In Hungary
  • List of Countries
  • For 7 days
  • Water Temperature
  • Satellite Maps
  • Weather Map
  • News
  • Weather Widgets
  • user-avatar
    Login

    Hourly Weather Rehovot

    Today, 17 July, Wednesday

    Time Temperature Precipitation Wind Pressure Humidity
    00:00 +26°C° 0 mm 2 mps 750 mmHg 56%
    01:00 +27°C° 0 mm 2 mps 749 mmHg 49%
    02:00 +28°C° 0 mm 2 mps 749 mmHg 41%
    03:00 +29°C° 0 mm 3 mps 748 mmHg 37%
    04:00 +30°C° 0 mm 3 mps 748 mmHg 33%
    05:00 +30°C° 0 mm 3 mps 748 mmHg 29%
    06:00 +34°C° 0 mm 4 mps 748 mmHg 27%
    07:00 +37°C° 0 mm 5 mps 748 mmHg 25%
    08:00 +41°C° 0 mm 5 mps 748 mmHg 23%
    09:00 +41°C° 0 mm 6 mps 748 mmHg 23%
    10:00 +43°C° 0 mm 8 mps 748 mmHg 23%
    11:00 +43°C° 0 mm 9 mps 748 mmHg 24%
    12:00 +41°C° 0 mm 8 mps 748 mmHg 32%
    13:00 +39°C° 0 mm 7 mps 748 mmHg 40%
    14:00 +38°C° 0 mm 7 mps 748 mmHg 48%
    15:00 +36°C° 0 mm 6 mps 748 mmHg 47%
    16:00 +36°C° 0 mm 5 mps 748 mmHg 47%
    17:00 +35°C° 0 mm 3 mps 749 mmHg 46%
    18:00 +33°C° 0 mm 3 mps 749 mmHg 57%
    19:00 +30°C° 0 mm 3 mps 749 mmHg 67%
    20:00 +28°C° 0 mm 3 mps 749 mmHg 78%
    21:00 +28°C° 0 mm 2 mps 750 mmHg 81%
    22:00 +27°C° 0 mm 1 mps 750 mmHg 84%
    23:00 +24°C° 0 mm 0 mps 750 mmHg 86%

    Tomorrow, 18 July, Thursday

    Time Temperature Precipitation Wind Pressure Humidity
    00:00 +26°C° 0 mm 1 mps 750 mmHg 87%
    01:00 +26°C° 0 mm 2 mps 750 mmHg 87%
    02:00 +26°C° 0 mm 3 mps 750 mmHg 88%
    03:00 +26°C° 0 mm 3 mps 750 mmHg 88%
    04:00 +26°C° 0 mm 3 mps 750 mmHg 88%
    05:00 +26°C° 0 mm 3 mps 750 mmHg 88%
    06:00 +28°C° 0 mm 3 mps 751 mmHg 78%
    07:00 +29°C° 0 mm 4 mps 751 mmHg 67%
    08:00 +32°C° 0 mm 4 mps 751 mmHg 56%
    09:00 +33°C° 0 mm 5 mps 751 mmHg 53%
    10:00 +34°C° 0 mm 5 mps 751 mmHg 51%
    11:00 +35°C° 0 mm 6 mps 751 mmHg 48%
    12:00 +34°C° 0 mm 6 mps 751 mmHg 50%
    13:00 +34°C° 0 mm 6 mps 751 mmHg 51%
    14:00 +34°C° 0 mm 6 mps 750 mmHg 53%
    15:00 +33°C° 0 mm 6 mps 751 mmHg 54%
    16:00 +32°C° 0 mm 6 mps 751 mmHg 55%
    17:00 +30°C° 0 mm 6 mps 751 mmHg 57%
    18:00 +29°C° 0 mm 5 mps 751 mmHg 63%
    19:00 +27°C° 0 mm 4 mps 752 mmHg 70%
    20:00 +26°C° 0 mm 3 mps 752 mmHg 76%
    21:00 +25°C° 0 mm 2 mps 752 mmHg 79%
    22:00 +25°C° 0 mm 1 mps 752 mmHg 81%
    23:00 +24°C° 0 mm 1 mps 753 mmHg 83%

    Day after tomorrow, 19 July, Friday

    Time Temperature Precipitation Wind Pressure Humidity
    00:00 +24°C° 0 mm 1 mps 752 mmHg 83%
    01:00 +24°C° 0 mm 1 mps 752 mmHg 83%
    02:00 +24°C° 0 mm 1 mps 752 mmHg 83%
    03:00 +24°C° 0 mm 1 mps 752 mmHg 84%
    04:00 +24°C° 0 mm 1 mps 753 mmHg 85%
    05:00 +23°C° 0 mm 2 mps 753 mmHg 86%
    06:00 +25°C° 0 mm 1 mps 753 mmHg 79%
    07:00 +27°C° 0 mm 1 mps 753 mmHg 72%
    08:00 +28°C° 0 mm 1 mps 753 mmHg 66%
    09:00 +30°C° 0 mm 2 mps 753 mmHg 60%
    10:00 +31°C° 0 mm 3 mps 753 mmHg 54%
    11:00 +33°C° 0 mm 4 mps 753 mmHg 47%
    12:00 +33°C° 0 mm 4 mps 752 mmHg 48%
    13:00 +33°C° 0 mm 5 mps 752 mmHg 49%
    14:00 +33°C° 0 mm 5 mps 752 mmHg 50%
    15:00 +33°C° 0 mm 5 mps 752 mmHg 51%
    16:00 +32°C° 0 mm 5 mps 752 mmHg 53%
    17:00 +30°C° 0 mm 5 mps 752 mmHg 55%
    18:00 +29°C° 0 mm 4 mps 752 mmHg 62%
    19:00 +27°C° 0 mm 3 mps 752 mmHg 69%
    20:00 +26°C° 0 mm 2 mps 753 mmHg 76%
    21:00 +25°C° 0 mm 2 mps 753 mmHg 77%
    22:00 +24°C° 0 mm 1 mps 753 mmHg 79%
    23:00 +24°C° 0 mm 1 mps 753 mmHg 80%

    20 July, Saturday

    Time Temperature Precipitation Wind Pressure Humidity
    00:00 +23°C° 0 mm 1 mps 752 mmHg 81%
    01:00 +23°C° 0 mm 1 mps 752 mmHg 81%
    02:00 +23°C° 0 mm 1 mps 752 mmHg 82%
    03:00 +23°C° 0 mm 1 mps 752 mmHg 83%
    04:00 +23°C° 0 mm 1 mps 752 mmHg 83%
    05:00 +22°C° 0 mm 1 mps 752 mmHg 84%
    06:00 +24°C° 0 mm 1 mps 752 mmHg 78%
    07:00 +26°C° 0 mm 2 mps 753 mmHg 71%
    08:00 +28°C° 0 mm 2 mps 753 mmHg 64%
    09:00 +29°C° 0 mm 2 mps 753 mmHg 59%
    10:00 +31°C° 0 mm 3 mps 753 mmHg 53%
    11:00 +33°C° 0 mm 4 mps 753 mmHg 47%
    12:00 +33°C° 0 mm 5 mps 752 mmHg 48%
    13:00 +33°C° 0 mm 5 mps 752 mmHg 49%
    14:00 +33°C° 0 mm 5 mps 752 mmHg 49%
    15:00 +33°C° 0 mm 5 mps 752 mmHg 53%
    16:00 +32°C° 0 mm 5 mps 752 mmHg 56%
    17:00 +30°C° 0 mm 5 mps 752 mmHg 59%
    18:00 +29°C° 0 mm 4 mps 752 mmHg 67%
    19:00 +27°C° 0 mm 3 mps 752 mmHg 74%
    20:00 +26°C° 0 mm 2 mps 753 mmHg 82%
    21:00 +25°C° 0 mm 1 mps 753 mmHg 83%
    22:00 +25°C° 0 mm 1 mps 753 mmHg 83%
    23:00 +24°C° 0 mm 1 mps 753 mmHg 84%

    21 July, Sunday

    Time Temperature Precipitation Wind Pressure Humidity
    00:00 +24°C° 0 mm 1 mps 752 mmHg 85%
    01:00 +23°C° 0 mm 1 mps 752 mmHg 85%
    02:00 +23°C° 0 mm 1 mps 752 mmHg 86%
    03:00 +23°C° 0 mm 1 mps 752 mmHg 87%
    04:00 +23°C° 0 mm 1 mps 752 mmHg 87%
    05:00 +23°C° 0 mm 1 mps 752 mmHg 88%
    06:00 +25°C° 0 mm 1 mps 752 mmHg 80%
    07:00 +27°C° 0 mm 1 mps 752 mmHg 72%
    08:00 +29°C° 0 mm 1 mps 752 mmHg 64%
    09:00 +30°C° 0 mm 2 mps 752 mmHg 58%
    10:00 +31°C° 0 mm 3 mps 752 mmHg 52%
    11:00 +34°C° 0 mm 4 mps 752 mmHg 46%
    12:00 +34°C° 0 mm 5 mps 751 mmHg 47%
    13:00 +34°C° 0 mm 5 mps 751 mmHg 48%
    14:00 +34°C° 0 mm 5 mps 751 mmHg 48%
    15:00 +34°C° 0 mm 6 mps 750 mmHg 52%
    16:00 +33°C° 0 mm 6 mps 750 mmHg 55%
    17:00 +32°C° 0 mm 6 mps 750 mmHg 59%
    18:00 +30°C° 0 mm 5 mps 750 mmHg 67%
    19:00 +28°C° 0 mm 4 mps 751 mmHg 75%
    20:00 +26°C° 0 mm 3 mps 751 mmHg 83%
    21:00 +26°C° 0 mm 2 mps 751 mmHg 84%
    22:00 +26°C° 0 mm 2 mps 751 mmHg 84%
    23:00 +25°C° 0 mm 1 mps 751 mmHg 85%

    22 July, Monday

    Time Temperature Precipitation Wind Pressure Humidity
    00:00 +25°C° 0 mm 1 mps 751 mmHg 86%
    01:00 +24°C° 0 mm 1 mps 750 mmHg 87%
    02:00 +24°C° 0 mm 1 mps 750 mmHg 87%
    03:00 +24°C° 0 mm 1 mps 750 mmHg 88%
    04:00 +24°C° 0 mm 1 mps 750 mmHg 88%
    05:00 +24°C° 0 mm 1 mps 750 mmHg 88%
    06:00 +26°C° 0 mm 1 mps 750 mmHg 80%
    07:00 +28°C° 0 mm 1 mps 751 mmHg 71%
    08:00 +30°C° 0 mm 1 mps 751 mmHg 63%
    09:00 +32°C° 0 mm 2 mps 751 mmHg 57%
    10:00 +34°C° 0 mm 3 mps 750 mmHg 51%
    11:00 +36°C° 0 mm 5 mps 750 mmHg 45%
    12:00 +36°C° 0 mm 5 mps 750 mmHg 46%
    13:00 +36°C° 0 mm 6 mps 749 mmHg 48%
    14:00 +36°C° 0 mm 7 mps 749 mmHg 49%
    15:00 +35°C° 0 mm 6 mps 748 mmHg 51%
    16:00 +34°C° 0 mm 6 mps 748 mmHg 53%
    17:00 +33°C° 0 mm 6 mps 748 mmHg 54%
    18:00 +32°C° 0 mm 4 mps 749 mmHg 64%
    19:00 +29°C° 0 mm 3 mps 749 mmHg 73%
    20:00 +27°C° 0 mm 2 mps 749 mmHg 83%
    21:00 +26°C° 0 mm 1 mps 749 mmHg 83%
    22:00 +26°C° 0 mm 1 mps 749 mmHg 84%
    23:00 +23°C° 0 mm 0 mps 749 mmHg 84%
    Show more